Regional Weather Roundup
Issued by NWS

Home | Current Version | Previous Version | Graphics & Text | Print | Product List | Glossary Off
Versions: 1 2 3 4 5 6 7 8 9 10 11 12 13 14 15 16 17 18 19 20 21 22 23 24 25 26 27 28 29 30 31 32 33 34 35 36 37 38 39 40 41 42 43 44 45 46 47 48 49 50

186
ASUS43 KTOP 172359
RWRKS

WEATHER ROUNDUP FOR KANSAS
NATIONAL WEATHER SERVICE GOODLAND KS
700 PM CDT THU AUG 17 2017

NOTE:  "FAIR" INDICATES FEW OR NO CLOUDS BELOW 12,000 FEET WITH NO
SIGNIFICANT WEATHER AND/OR OBSTRUCTIONS TO VISIBILITY.

KSZ001>006-013>018-027>032-041>047-180100-
NORTHWEST KANSAS

CITY           SKY/WX    TMP DP  RH WIND       PRES   REMARKS
GOODLAND       CLOUDY    81  60  48 S8        30.01F
6HR MIN TEMP:  79; 6HR MAX TEMP:  85;

HAYS           SUNNY     86  54  33 SE16      29.97F
HILL CITY      SUNNY     89  51  27 SE10      29.97F
6HR MIN TEMP:  84; 6HR MAX TEMP:  92;

RUSSELL        SUNNY     87  50  27 S6        29.97S
6HR MIN TEMP:  83; 6HR MAX TEMP:  89;

$$

KSZ061>065-074>080-084>089-180100-
SOUTHWEST KANSAS

CITY           SKY/WX    TMP DP  RH WIND       PRES   REMARKS
DODGE CITY     SUNNY     88  55  32 S13       30.01S
6HR MIN TEMP:  83; 6HR MAX TEMP:  92;

ELKHART          N/A     85  65  51 SE14        N/A
GARDEN CITY    SUNNY     86  59  39 S10       30.00F
6HR MIN TEMP:  81; 6HR MAX TEMP:  88; 6HR PCP: TRACE;

GREAT BEND     SUNNY     86  52  30 SE9       29.99S
LIBERAL        CLOUDY    88  61  40 S15       30.01F
$$

KSZ066>073-081>083-090>101-180100-
SOUTHEAST KANSAS

CITY           SKY/WX    TMP DP  RH WIND       PRES   REMARKS
CHANUTE        SUNNY     83  60  45 W5        29.97F
6HR MIN TEMP:  82; 6HR MAX TEMP:  85;

COFFEYVILLE    SUNNY     86  62  44 N6        29.96S
6HR MIN TEMP:  83; 6HR MAX TEMP:  87;

HUTCHINSON     SUNNY     85  59  41 SE6       29.97F
6HR MIN TEMP:  84; 6HR MAX TEMP:  89;

MEDICINE LODGE   N/A     86  58  38 SE6       29.98S
NEWTON         SUNNY     83  58  42 S6        29.99F
PARSONS        SUNNY     83  62  49 NW3       29.97F
6HR MIN TEMP:  81; 6HR MAX TEMP:  85;

WICHITA INTL   MOSUNNY   87  56  34 S6        29.97F
6HR MIN TEMP:  83; 6HR MAX TEMP:  90;

WICHITA JABRA  SUNNY     85  58  39 CALM      29.97F
6HR MIN TEMP:  82; 6HR MAX TEMP:  87;

WINFIELD       SUNNY     83  60  45 SE3       29.98F
6HR MIN TEMP:  81; 6HR MAX TEMP:  86;

$$

KSZ007>012-019>026-033>040-048>060-102>105-180100-
NORTHEAST KANSAS

CITY           SKY/WX    TMP DP  RH WIND       PRES   REMARKS
CONCORDIA      SUNNY     83  67  58 SE3       29.95F
6HR MIN TEMP:  82; 6HR MAX TEMP:  88;

EMPORIA        SUNNY     83  59  44 NW3       29.97F
6HR MIN TEMP:  80; 6HR MAX TEMP:  85;

LAWRENCE       SUNNY     82  63  52 W6        29.93F
6HR MIN TEMP:  80; 6HR MAX TEMP:  85;

MANHATTAN      SUNNY     84  63  49 W3        29.95F
6HR MIN TEMP:  83; 6HR MAX TEMP:  88;

OLATHE IND     SUNNY     81  59  47 W7        29.95F
6HR MIN TEMP:  79; 6HR MAX TEMP:  82;

OLATHE EXE     SUNNY     80  60  50 W6        29.95S
6HR MIN TEMP:  77; 6HR MAX TEMP:  82;

SALINA         SUNNY     90  51  26 N5        29.95F
6HR MIN TEMP:  87; 6HR MAX TEMP:  92;

TOPEKA BILLARD SUNNY     84  59  42 W5        29.93F
6HR MIN TEMP:  83; 6HR MAX TEMP:  88;

TOPEKA FORBES  SUNNY     83  60  45 SW7       29.95F
6HR MIN TEMP:  82; 6HR MAX TEMP:  86;

$$




USA.gov is the U.S. government's official web portal to all federal, state and local government web resources and services.